Find Orbcomm A3

NORAD ID: 25119 Int'l Des: 1997-084 Owner: ORBC Country: US Constellation: orbcomm operational
LEOCIRCULAR

当前视图

正在加载3D地球...

关于 Orbcomm A3

正在加载描述...

即将过境

Passes for default location (London). Set your location on the main map for personalized predictions.

高度历史

Loading altitude history...

两行轨道根数

1 25119U 97084H 26150.40541549 .00001528 00000-0 45069-3 0 9995
2 25119 45.0120 139.0467 0002610 230.6647 129.3974 14.47514824491806
Epoch: May 30, 2026 • Age: 8 hours

当前状态

高度 734.6 km
速度 7.49 km/s
星下点 4.67°N, 16.86°W
发射日期 Dec 23, 1997
运行时间 28.4 years
类型 other

技术详情

分类 Payload
质量 42.00 kg
干质量 42.00 kg
总质量 42.00 kg
长度 0.20 m
直径 1.00 m
跨度 4.30 m
形状 Cyl + 2 Pan + Ant
制造商 OSCG
平台类型 Microstar
阶段状态 Unknown Transfer Status
所有者/国家 ORBC/US

Most Searched